Weather History for KTTD - November, 2013

Change the Weather History Date:

Friday, November 8, 2013

  Actual Average Record
Temperature  
Mean Temperature 48 °F 48 °F  
Max Temperature 53 °F 55 °F 63 °F (1995)
Min Temperature 43 °F 40 °F 26 °F (1948)
Degree Days  
Heating Degree Days 17 17  
Month to date heating degree days 115 132  
Cooling Degree Days 0 0  
Month to date cooling degree days 0 0  
Moisture  
Dew Point 44 °F    
Average Humidity 82    
Maximum Humidity 92    
Minimum Humidity 71    
Precipitation  
Precipitation T in 0.25 in 1.11 in (1963)
Month to date precipitation 2.28 1.83  
Year to date precipitation 24.81 34.35  
Sea Level Pressure  
Sea Level Pressure 30.16 in    
Wind  
Wind Speed 4 mph (SSW)    
Max Wind Speed 10 mph    
Max Gust Speed 15 mph    
Visibility 10 miles    
Events Rain    
T = Trace of Precipitation, MM = Missing Value Source: NWS Daily Summary

Daily Weather History Graph

Daily Weather History Graph

Search for Another Location

Airport or City:

Trip Planner

Search our weather history database for the weather conditions in past years. The results will help you decide how hot, cold, wet, or windy it might be!

Date:

Astronomy

Nov. 08, 2013 Rise Set
Actual Time 6:59 AM PST 4:46 PM PST
Civil Twilight 6:27 AM PST 5:18 PM PST
Nautical Twilight 5:52 AM PST 5:53 PM PST
Astronomical Twilight 5:17 AM PST 6:28 PM PST
Moon 11:59 AM PST (11/8) 10:15 PM PST (11/8)
Length of Visible Light 10h 50m
Length of Day
9h 47m
Waxing Crescent, 34% of the Moon is Illuminated
Nov 8
Waxing Crescent
Nov 9
First Quarter
Nov 17
Full
Nov 25
Last Quarter
Dec 2
New

Hourly Weather History & Observations

Time (PST) Temp. Windchill Dew Point Humidity Pressure Visibility Wind Dir Wind Speed Gust Speed Precip Events Conditions
12:53 AM 50.0 °F - 44.1 °F 80% 30.12 in 10.0 mi SW 11.5 mph - N/A   Overcast
1:53 AM 50.0 °F - 44.1 °F 80% 30.14 in 10.0 mi SW 8.1 mph - N/A   Overcast
2:53 AM 50.0 °F - 44.1 °F 80% 30.14 in 10.0 mi Variable 4.6 mph - N/A   Overcast
3:37 AM 50.0 °F - 44.6 °F 82% 30.15 in 10.0 mi Calm Calm - N/A   Overcast
3:53 AM 48.9 °F - 44.1 °F 83% 30.15 in 10.0 mi SW 4.6 mph - N/A   Overcast
4:53 AM 48.9 °F - 44.1 °F 83% 30.15 in 10.0 mi SW 4.6 mph - N/A   Mostly Cloudy
5:53 AM 50.0 °F - 44.1 °F 80% 30.16 in 10.0 mi WSW 8.1 mph - N/A   Overcast
6:53 AM 48.9 °F - 44.1 °F 83% 30.17 in 10.0 mi Variable 3.5 mph - 0.00 in Rain Light Rain
7:53 AM 48.9 °F - 45.0 °F 86% 30.18 in 10.0 mi SW 5.8 mph - 0.00 in   Overcast
8:53 AM 50.0 °F - 45.0 °F 83% 30.19 in 10.0 mi SW 5.8 mph - N/A   Scattered Clouds
9:53 AM 51.1 °F - 45.0 °F 80% 30.20 in 10.0 mi SW 5.8 mph - N/A   Overcast
10:41 AM 51.8 °F - 44.6 °F 76% 30.20 in 10.0 mi SW 4.6 mph - N/A   Overcast
10:53 AM 51.1 °F - 46.0 °F 83% 30.19 in 10.0 mi Variable 3.5 mph - N/A   Overcast
11:36 AM 51.8 °F - 44.6 °F 76% 30.19 in 10.0 mi SW 4.6 mph - N/A   Overcast
11:48 AM 51.8 °F - 44.6 °F 76% 30.19 in 10.0 mi SSW 5.8 mph - N/A   Overcast
11:53 AM 52.0 °F - 45.0 °F 77% 30.19 in 10.0 mi SSW 5.8 mph - N/A   Overcast
12:53 PM 52.0 °F - 45.0 °F 77% 30.17 in 10.0 mi SSW 5.8 mph - N/A   Overcast
1:53 PM 53.1 °F - 44.1 °F 71% 30.17 in 10.0 mi SSW 4.6 mph - N/A   Overcast
2:49 PM 53.6 °F - 44.6 °F 72% 30.16 in 10.0 mi SSW 3.5 mph - N/A   Overcast
2:53 PM 53.1 °F - 45.0 °F 74% 30.17 in 10.0 mi South 3.5 mph - N/A   Overcast
3:34 PM 53.6 °F - 44.6 °F 72% 30.16 in 10.0 mi SW 3.5 mph - N/A   Overcast
3:53 PM 53.1 °F - 45.0 °F 74% 30.17 in 10.0 mi SSW 4.6 mph - N/A   Overcast
4:08 PM 51.8 °F - 44.6 °F 76% 30.16 in 10.0 mi SSW 3.5 mph - N/A   Overcast
4:49 PM 51.8 °F - 44.6 °F 76% 30.16 in 10.0 mi Calm Calm - N/A   Overcast
4:53 PM 52.0 °F - 45.0 °F 77% 30.16 in 10.0 mi Calm Calm - N/A   Overcast
5:53 PM 51.1 °F - 46.0 °F 83% 30.16 in 10.0 mi NNE 3.5 mph - 0.00 in Rain Light Rain
6:36 PM 48.2 °F - 44.6 °F 87% 30.15 in 10.0 mi Calm Calm - 0.00 in   Overcast
6:53 PM 48.9 °F - 45.0 °F 86% 30.15 in 10.0 mi ENE 3.5 mph - 0.00 in   Overcast
7:53 PM 46.0 °F - 43.0 °F 89% 30.15 in 10.0 mi Calm Calm - N/A   Partly Cloudy
8:53 PM 44.1 °F 42.5 °F 42.1 °F 93% 30.15 in 10.0 mi East 3.5 mph - N/A   Clear
9:53 PM 44.1 °F - 42.1 °F 93% 30.16 in 8.0 mi Calm Calm - N/A   Clear
10:53 PM 44.1 °F - 42.1 °F 93% 30.14 in 10.0 mi Calm Calm - N/A   Clear
11:53 PM 44.1 °F - 42.1 °F 93% 30.14 in 10.0 mi Calm Calm - N/A   Clear